Weather Roundup
Issued by NWS Springfield, MO

Home | Current Version | Previous Version | Text Only | Print | Product List | Glossary On
Versions: 1 2 3 4 5 6 7 8 9 10 11 12 13 14 15 16 17 18 19 20 21 22 23 24 25 26 27 28 29 30 31 32 33 34 35 36 37 38 39 40 41 42 43 44 45 46 47 48 49 50
000
NZUS99 KSGF 161307
HRRSGF

HOURLY WEATHER
NATIONAL WEATHER SERVICE SPRINGFIELD MO
800 AM CDT WED AUG 16 2017

......SGF CWA......

CITY           SKY/WX    TMP DP  RH WIND       PRES   REMARKS
SPRINGFIELD    CLOUDY    73  72  96 S13       29.93R
JOPLIN         MOSUNNY   78  73  84 S12       29.89R
WEST PLAINS    CLOUDY    75  73  93 S7        29.99R FOG
ROLLA          CLOUDY    74  74 100 SE7       29.95R FOG
OSAGE BEACH    CLOUDY    70  69  97 S7        29.93R
BRANSON        CLOUDY    72  72 100 SE6       29.95S

......SURROUNDING SGF CWA......

CITY           SKY/WX    TMP DP  RH WIND       PRES   REMARKS
CHANUTE        MOSUNNY   75  72  90 MISG      29.85R
PARSONS        PTSUNNY   76  72  87 VRB5      29.86R
COFFEYVILLE    CLOUDY    75  73  93 S6        29.85R
EMPORIA        CLOUDY    73  71  93 S15       29.84R
GROVE OK       MOSUNNY   77  72  83 S8        29.90R
ROGERS AR      CLOUDY    73  71  93 SE7       29.95R
SILOAM SPRINGS CLOUDY    75  72  88 S6        29.93R
HARRISON AR    CLOUDY    73  72  96 SE7       29.97R
NEAR YELLVILLE MOSUNNY   75  70  83 SE3       29.93R

......KANSAS AND MISSOURI......

CITY           SKY/WX    TMP DP  RH WIND       PRES   REMARKS
KANSAS CTY INT TSTM      73  72  96 S10       29.85S FOG
DOWNTOWN KC    TSTM      73  72  96 N8        29.84F
COLUMBIA       CLOUDY    73  71  93 SE8       29.92R
SEDALIA        TSTM      73  73 100 CALM      29.92S
ST JOSEPH      CLOUDY    74  71  91 S12       29.83R
ST LOUIS       LGT RAIN  76  73  91 SE9       29.95R
SPIRIT OF STL  CLOUDY    75  74  96 CALM      29.93R
KIRKSVILLE     PTSUNNY   73  71  93 SE7       29.91R
WICHITA        CLOUDY    74  72  93 S6        29.85R
TOPEKA         CLOUDY    75  73  93 S13       29.80S
OLATHE         CLOUDY    72  72 100 S9        29.86R

......TENNESSEE......

CITY           SKY/WX    TMP DP  RH WIND       PRES   REMARKS
MEMPHIS        CLOUDY    78  75  90 S8        30.02R
NASHVILLE      PTSUNNY   75  72  90 S8        30.06F

......ARKANSAS.......

CITY           SKY/WX    TMP DP  RH WIND       PRES   REMARKS
FAYETTEVILLE   CLOUDY    75  74  96 S6        29.94R
FT SMITH       CLOUDY    76  74  93 NE7       29.91R
LITTLE ROCK    CLOUDY    77  77 100 S8        29.98R FOG

......OKLAHOMA.......

CITY           SKY/WX    TMP DP  RH WIND       PRES   REMARKS
TULSA          CLOUDY    77  74  90 S12       29.84R
PONCA CITY     SUNNY     76  70  82 S6        29.84R
MCALESTER      CLOUDY    80  73  79 VRB6      29.90R
OKLAHOMA CITY  CLOUDY    75  71  87 S13       29.85R

......IOWA............

CITY           SKY/WX    TMP DP  RH WIND       PRES   REMARKS
DES MOINES     CLOUDY    71  69  93 E10       29.84S
QUAD CITIES    SUNNY     70  65  84 E10       29.95S HAZE

......ILLINOIS........

CITY           SKY/WX    TMP DP  RH WIND       PRES   REMARKS
QUINCY         PTSUNNY   73  70  90 SE6       29.92R
CHICAGO        MOSUNNY   73  66  78 E9        30.01S




USA.gov is the U.S. government's official web portal to all federal, state and local government web resources and services.